Location: Fluertsh�userhof
(48.7537°N, 10.3850°E)
Time: 15:46:35
(UTC+00:00)

Lacrosse 5 rocket - Pass Details

Date: 18 September 2020
Orbit: 460 x 635 km, 57.0° (Epoch: 23 October)

Event Time Altitude Azimuth Distance (km) Brightness Sun altitude
Rises 19:47:07 0° 285° (WNW) 2,791 6.2 -23.1°
Reaches altitude 10° 19:49:36 10° 297° (WNW) 1,922 5.2 -23.5°
Maximum altitude 19:53:25 28° 357° (N) 1,147 3.2 -24.0°
Enters shadow 19:55:10 22° 34° (NE) 1,365 3.3 -24.3°
